FW0708 Weather Reports


Display with metric or nautical units.
time (UTC)temp
F
wind
direction
speed
MPH
gust
MPH
rain 1hr
in
rain 24hr
in
rain mn
in
humidity
%
barometer
mb
20260505231539 44 293 9.0 18.0 0.00 0.00 0.00 48 1009.6
20260505230046 45 271 8.0 18.0 0.00 0.00 0.00 48 1009.6
20260505224543 45 277 7.0 16.0 0.00 0.00 0.00 48 1009.6
20260505223039 45 287 4.0 13.0 0.00 0.00 0.00 49 1009.4
20260505221534 45 298 4.0 17.0 0.00 0.00 0.00 48 1009.4
20260505220033 45 280 10.0 18.0 0.00 0.00 0.00 48 1009.4
20260505214535 44 320 4.0 13.0 0.00 0.00 0.00 50 1009.3
20260505213033 43 280 8.0 14.0 0.00 0.00 0.00 51 1009.4
20260505211532 42 351 8.0 14.0 0.00 0.00 0.00 53 1009.3
20260505210031 43 358 5.0 12.0 0.00 0.00 0.00 53 1009.3
20260505204530 43 285 6.0 16.0 0.00 0.00 0.00 51 1009.2
20260505203036 44 282 8.0 18.0 0.00 0.00 0.00 49 1009.2
20260505201528 44 316 8.0 17.0 0.00 0.00 0.00 51 1009.3
20260505200032 44 322 9.0 17.0 0.00 0.00 0.00 48 1009.1
20260505194527 44 284 12.0 22.0 0.00 0.00 0.00 49 1009.0
20260505193026 43 253 7.0 17.0 0.00 0.00 0.00 50 1009.0
20260505191525 43 297 9.0 18.0 0.00 0.00 0.00 51 1009.1
20260505190125 42 298 7.0 20.0 0.00 0.00 0.00 50 1009.0
20260505184524 42 289 9.0 18.0 0.00 0.00 0.00 51 1009.0
20260505183022 42 298 9.0 18.0 0.00 0.00 0.00 53 1008.9
20260505181522 41 240 10.0 18.0 0.00 0.00 0.00 52 1008.8
20260505180021 41 226 10.0 15.0 0.00 0.00 0.00 52 1009.0
20260505174521 41 210 3.0 20.0 0.00 0.00 0.00 54 1008.8
20260505173032 41 253 9.0 18.0 0.00 0.00 0.00 53 1008.9
20260505171532 40 217 9.0 21.0 0.00 0.00 0.00 53 1008.7
20260505170021 39 278 10.0 15.0 0.00 0.00 0.00 53 1008.8
20260505164517 39 291 9.0 17.0 0.00 0.00 0.00 54 1008.8
20260505163015 38 248 6.0 16.0 0.00 0.00 0.00 54 1008.6
20260505161514 38 281 10.0 16.0 0.00 0.00 0.00 53 1008.4
20260505153010 38 241 10.0 16.0 0.00 0.00 0.00 54 1007.9
20260505151506 39 248 9.0 16.0 0.00 0.00 0.00 55 1007.5
20260505124550 37 281 8.0 18.0 0.00 0.00 0.00 67 1005.9
20260505123045 37 336 11.0 20.0 0.00 0.00 0.00 67 1005.6
20260505121543 37 267 8.0 17.0 0.00 0.00 0.00 67 1005.5
20260505120100 38 302 9.0 18.0 0.00 0.00 0.00 68 1005.1
20260505114536 38 252 7.0 17.0 0.00 0.00 0.00 72 1004.9
20260505113040 38 276 6.0 11.0 0.00 0.00 0.00 74 1004.6
20260505111531 37 278 2.0 8.0 0.00 0.00 0.00 73 1004.4
20260505101524 38 307 9.0 17.0 0.00 0.00 0.00 68 1003.9
20260505100025 39 296 7.0 15.0 0.00 0.00 0.00 67 1003.7
20260505094516 39 345 10.0 17.0 0.00 0.00 0.00 67 1003.6
20260505093014 39 256 6.0 12.0 0.00 0.00 0.00 67 1003.5
20260505091523 39 274 7.0 15.0 0.00 0.00 0.00 67 1003.4
20260505090023 39 287 4.0 12.0 0.00 0.00 0.00 66 1003.0
20260505084507 39 247 6.0 14.0 0.00 0.00 0.00 66 1003.0
20260505083005 39 256 6.0 13.0 0.00 0.00 0.00 66 1002.9
20260505081506 40 266 8.0 14.0 0.00 0.00 0.00 65 1002.7
20260505080059 40 278 5.0 12.0 0.00 0.00 0.00 64 1002.7
20260505074600 41 281 5.0 10.0 0.00 0.00 0.00 63 1002.6
20260505073104 41 287 2.0 13.0 0.00 0.00 0.00 63 1002.6
20260505071553 42 268 3.0 13.0 0.00 0.00 0.00 62 1002.6
20260505070048 42 240 5.0 11.0 0.00 0.00 0.00 61 1002.5
20260505064546 43 293 6.0 11.0 0.00 0.00 0.00 61 1002.4
20260505063045 43 274 5.0 16.0 0.00 0.00 0.00 60 1002.4
20260505061551 43 263 4.0 10.0 0.00 0.00 0.00 61 1002.4
20260505060041 43 283 5.0 10.0 0.00 0.00 0.00 61 1002.4
20260505054559 43 323 4.0 12.0 0.00 0.00 0.00 60 1002.3
20260505053041 44 218 9.0 14.0 0.00 0.00 0.00 60 1002.2
20260505051535 44 287 6.0 13.0 0.00 0.00 0.00 59 1002.2
20260505041524 45 266 8.0 16.0 0.00 0.00 0.00 52 1001.9
20260505040022 45 263 5.0 14.0 0.00 0.00 0.00 52 1001.7
20260505034522 45 237 5.0 9.0 0.00 0.00 0.00 52 1001.5
20260505033021 45 257 3.0 8.0 0.00 0.00 0.00 51 1001.5
20260505031536 46 233 2.0 10.0 0.00 0.00 0.00 50 1001.5
20260505030016 46 265 6.0 13.0 0.00 0.00 0.00 49 1001.5
20260505024525 46 264 4.0 15.0 0.00 0.00 0.00 49 1001.2
20260505023014 46 263 5.0 16.0 0.00 0.00 0.00 49 1001.1
20260505021516 46 246 5.0 18.0 0.00 0.00 0.00 49 1000.9
20260505020020 46 260 8.0 14.0 0.00 0.00 0.00 48 1000.8
20260505014508 46 226 6.0 21.0 0.00 0.00 0.00 49 1000.6
20260505013004 47 220 6.0 15.0 0.00 0.00 0.00 49 1000.5
20260505011502 47 229 10.0 19.0 0.00 0.00 0.00 50 1000.3
20260505004558 48 276 9.0 21.0 0.00 0.00 0.00 52 999.9
20260505003055 48 241 12.0 23.0 0.00 0.00 0.00 50 999.8
20260505001555 49 291 11.0 23.0 0.00 0.00 0.00 50 999.5
20260505000106 50 257 7.0 20.0 0.00 0.00 0.00 50 999.1
20260504234545 50 254 8.0 16.0 0.00 0.00 0.00 49 998.8
20260504233041 51 274 8.0 24.0 0.00 0.00 0.00 48 998.6